This is the latest recevied weather packets stored in our database for station/object KO4IDC-13. If no packets are shown the sender has not sent any weather packets the latest 10 day(s).
| Time | Temp. | Humidity | Pressure | Rain* | Wind** | Luminosity | Snow |
|---|---|---|---|---|---|---|---|
| 1777390607 | 20° C | 81% | 1018.8 hPa | 0 mm | - | 263 W/m² | - |
| 1777390304 | 20° C | 80% | 1018.6 hPa | 0 mm | - | 292 W/m² | - |
| 1777390000 | 20° C | 80% | 1018.5 hPa | 0 mm | - | 252 W/m² | - |
| 1777389696 | 20.56° C | 81% | 1018.5 hPa | 0 mm | - | 471 W/m² | - |
| 1777389393 | 20° C | 83% | 1018.7 hPa | 0 mm | - | 220 W/m² | - |
| 1777389091 | 19.44° C | 84% | 1018.5 hPa | 0 mm | - | 430 W/m² | - |
| 1777388789 | 19.44° C | 85% | 1018.3 hPa | 0 mm | - | 435 W/m² | - |
| 1777388485 | 19.44° C | 86% | 1018.2 hPa | 0 mm | - | 258 W/m² | - |
| 1777388180 | 19.44° C | 86% | 1018 hPa | 0 mm | - | 177 W/m² | - |
| 1777387876 | 19.44° C | 85% | 1018.3 hPa | 0 mm | - | 160 W/m² | - |
| 1777387573 | 19.44° C | 85% | 1018.1 hPa | 0 mm | - | 165 W/m² | - |
| 1777387268 | 19.44° C | 84% | 1018.1 hPa | 0 mm | - | 221 W/m² | - |
| 1777386963 | 19.44° C | 85% | 1018 hPa | 0 mm | - | 226 W/m² | - |
| 1777386661 | 20° C | 83% | 1018.1 hPa | 0 mm | - | 226 W/m² | - |
| 1777386357 | 19.44° C | 83% | 1018 hPa | 0 mm | - | 619 W/m² | - |
| 1777386055 | 19.44° C | 84% | 1017.8 hPa | 0 mm | - | 282 W/m² | - |
| 1777385751 | 19.44° C | 85% | 1018.1 hPa | 0 mm | - | 316 W/m² | - |
| 1777385449 | 18.89° C | 87% | 1017.8 hPa | 0 mm | - | 221 W/m² | - |
| 1777385144 | 19.44° C | 87% | 1017.7 hPa | 0 mm | - | 158 W/m² | - |
| 1777384840 | 19.44° C | 86% | 1017.8 hPa | 0 mm | - | 204 W/m² | - |
| 1777384538 | 19.44° C | 86% | 1017.8 hPa | 0 mm | - | 229 W/m² | - |
| 1777384233 | 19.44° C | 86% | 1017.7 hPa | 0 mm | - | 424 W/m² | - |
| 1777383928 | 19.44° C | 88% | 1017.8 hPa | 0 mm | - | 397 W/m² | - |
| 1777383625 | 19.44° C | 89% | 1017.6 hPa | 0 mm | - | 248 W/m² | - |
| 1777383321 | 18.89° C | 89% | 1017.7 hPa | 0 mm | - | 273 W/m² | - |
* Rain latest hour (hover to see other rain measurements)
** Current wind speed in m/s (hover to see current wind gust speed)